IK1MHM-5 Weather Reports


time (UTC)temp
F
wind
direction
speed
knots
gust
knots
rain 1hr
in
rain 24hr
in
rain mn
in
humidity
%
barometer
mb
20260506185108 0 189 0.0 0.0 0.00 0.00 0.06 98 1024.2
20260506184609 0 189 0.0 0.9 0.00 0.00 0.06 98 1024.0
20260506184109 0 45 0.0 0.9 0.00 0.00 0.06 98 1024.0
20260506183609 0 189 0.9 1.7 0.00 0.00 0.06 98 1024.0
20260506183109 0 219 1.7 2.6 0.00 0.00 0.06 98 1024.0
20260506182608 0 199 0.0 0.0 0.00 0.00 0.06 98 1023.8
20260506182109 0 186 0.0 0.9 0.00 0.00 0.06 98 1023.8
20260506181609 0 195 0.0 0.9 0.00 0.00 0.06 98 1023.7
20260506181108 0 147 0.0 1.7 0.00 0.00 0.06 98 1023.7
20260506180608 0 100 0.0 0.9 0.00 0.00 0.06 98 1023.6
20260506180109 0 188 0.0 0.9 0.00 0.00 0.06 98 1023.7
20260506175609 0 162 0.0 0.9 0.00 0.00 0.06 98 1023.7
20260506175109 0 38 0.9 1.7 0.00 0.00 0.06 98 1023.6
20260506174608 0 85 1.7 2.6 0.00 0.00 0.06 98 1023.5
20260506174109 0 190 0.9 2.6 0.00 0.00 0.06 98 1023.3
20260506173609 0 158 0.0 0.9 0.00 0.00 0.06 98 1023.5
20260506173109 0 248 0.0 0.0 0.00 0.00 0.06 98 1023.5
20260506172609 0 193 0.9 1.7 0.00 0.00 0.06 98 1023.5
20260506172108 0 132 0.9 1.7 0.00 0.00 0.06 98 1023.2
20260506171608 0 249 0.0 0.9 0.00 0.00 0.06 98 1023.3
20260506171109 0 217 0.9 1.7 0.00 0.00 0.06 98 1023.2
20260506170609 0 209 1.7 2.6 0.00 0.00 0.06 98 1023.2
20260506170109 0 202 0.9 1.7 0.00 0.00 0.06 98 1023.2
20260506165609 0 187 0.0 0.9 0.00 0.00 0.06 98 1023.2
20260506165108 0 199 0.9 1.7 0.00 0.00 0.06 97 1023.2
20260506164608 0 188 0.0 0.0 0.00 0.00 0.06 98 1023.2
20260506164108 0 165 0.0 0.0 0.00 0.00 0.06 98 1023.2
20260506163608 0 206 0.0 0.9 0.00 0.00 0.06 97 1023.3
20260506163108 0 287 0.9 1.7 0.00 0.00 0.06 98 1023.5
20260506162608 0 235 0.0 0.9 0.00 0.00 0.06 98 1023.3
20260506162109 0 257 0.0 0.9 0.00 0.00 0.06 98 1023.2
20260506161608 0 168 0.9 2.6 0.00 0.00 0.06 98 1023.2
20260506161108 0 176 0.0 0.9 0.00 0.00 0.06 98 1023.2
20260506160609 0 187 2.6 4.3 0.00 0.00 0.06 98 1023.2
20260506160108 0 42 1.7 2.6 0.00 0.00 0.06 98 1023.2
20260506155609 0 224 1.7 3.5 0.00 0.00 0.06 98 1023.3
20260506155108 0 216 0.0 0.9 0.00 0.00 0.06 98 1023.2
20260506154609 0 189 0.0 0.9 0.00 0.00 0.06 98 1023.1
20260506154109 0 94 0.9 0.9 0.00 0.00 0.06 98 1023.2
20260506153608 0 230 0.9 1.7 0.00 0.00 0.06 97 1023.2
20260506153110 0 194 0.0 0.9 0.00 0.00 0.06 98 1023.2
20260506152608 0 194 0.0 0.9 0.00 0.00 0.06 98 1023.2
20260506152110 0 206 0.9 1.7 0.00 0.00 0.06 97 1023.1
20260506151608 0 221 1.7 3.5 0.00 0.00 0.06 97 1023.0
20260506151108 0 117 1.7 4.3 0.00 0.00 0.06 97 1023.1
20260506150610 0 238 0.0 1.7 0.00 0.00 0.06 97 1023.2
20260506150108 0 134 0.0 0.9 0.00 0.00 0.06 97 1023.2
20260506145608 0 189 1.7 4.3 0.00 0.00 0.06 97 1023.2
20260506145109 0 182 0.9 0.9 0.00 0.00 0.06 97 1023.2
20260506144608 0 187 0.9 1.7 0.00 0.00 0.06 97 1023.0
20260506144109 0 182 0.0 0.9 0.00 0.00 0.06 97 1023.3
20260506143609 0 183 0.0 0.9 0.00 0.00 0.06 97 1023.2
20260506143108 0 191 0.0 0.0 0.00 0.00 0.06 97 1023.1
20260506142609 0 199 0.0 0.9 0.00 0.00 0.06 97 1023.1
20260506142108 0 180 0.0 0.9 0.00 0.00 0.06 96 1022.8
20260506141609 0 194 0.0 0.9 0.00 0.00 0.06 96 1023.2
20260506141109 0 188 0.0 0.9 0.00 0.00 0.06 97 1023.1
20260506140609 0 169 0.9 1.7 0.00 0.00 0.06 97 1023.2
20260506140109 0 180 0.0 0.9 0.00 0.00 0.06 97 1023.1
20260506135609 0 108 0.9 0.9 0.05 0.00 0.06 97 1023.0
20260506135109 0 196 0.0 0.9 0.05 0.00 0.06 97 1023.0
20260506134609 0 197 0.9 0.9 0.05 0.00 0.06 97 1023.1
20260506134109 0 352 1.7 3.5 0.05 0.00 0.06 97 1023.1
20260506133609 0 196 1.7 2.6 0.05 0.00 0.06 97 1023.3
20260506133109 0 207 1.7 2.6 0.05 0.00 0.06 97 1023.2
20260506132608 0 233 0.9 1.7 0.05 0.00 0.06 97 1023.3
20260506132109 0 274 0.0 0.0 0.04 0.00 0.05 96 1023.3
20260506131608 0 122 1.7 1.7 0.02 0.00 0.03 82 1023.5
20260506131108 0 261 0.0 0.0 0.00 0.00 0.01 88 1023.5
20260506130608 0 166 1.7 2.6 0.00 0.00 0.01 86 1023.5
20260506130109 0 166 1.7 2.6 0.00 0.00 0.01 86 1023.5
20260506125609 0 294 0.0 0.9 0.00 0.00 0.00 87 1023.2
20260506125108 0 185 1.7 2.6 0.00 0.00 0.00 84 1023.1
20260506124609 0 118 1.7 3.5 0.00 0.00 0.00 83 1023.2
20260506124108 0 94 1.7 1.7 0.00 0.00 0.00 81 1023.2
20260506123609 0 89 0.9 0.9 0.00 0.00 0.00 79 1023.3
20260506123109 0 100 0.9 1.7 0.00 0.00 0.00 80 1023.2
20260506122609 0 92 1.7 1.7 0.00 0.00 0.00 81 1023.2
20260506122109 0 116 1.7 2.6 0.00 0.00 0.00 84 1023.2
20260506121609 0 52 0.9 1.7 0.00 0.00 0.00 81 1023.2
20260506121109 0 164 0.9 2.6 0.00 0.00 0.00 82 1023.0
20260506120609 0 156 1.7 2.6 0.00 0.00 0.00 82 1023.1
20260506120109 0 38 0.9 1.7 0.00 0.00 0.00 79 1023.2
20260506115608 0 135 0.9 1.7 0.00 0.00 0.00 77 1023.2
20260506115108 0 83 0.0 0.0 0.00 0.00 0.00 80 1023.2
20260506114609 0 90 0.0 0.9 0.00 0.00 0.00 78 1023.2
20260506114108 0 125 1.7 3.5 0.00 0.00 0.00 79 1023.1
20260506113609 0 82 0.9 1.7 0.00 0.00 0.00 77 1023.2
20260506113109 0 126 0.0 0.9 0.00 0.00 0.00 81 1023.2
20260506112609 0 68 0.9 1.7 0.00 0.00 0.00 80 1023.3
20260506112109 0 80 0.0 0.9 0.00 0.00 0.00 83 1023.1
20260506111609 0 99 0.9 2.6 0.00 0.00 0.00 86 1023.3
20260506111109 0 111 0.9 1.7 0.00 0.00 0.00 87 1023.2
20260506110609 0 110 0.9 1.7 0.00 0.00 0.00 90 1023.2
20260506110108 0 89 1.7 1.7 0.00 0.00 0.00 91 1023.2
20260506105609 0 79 0.9 1.7 0.00 0.00 0.00 91 1023.3
20260506105109 0 141 1.7 2.6 0.00 0.00 0.00 92 1023.3
20260506104608 0 50 0.9 2.6 0.00 0.00 0.00 92 1023.3
20260506104108 0 66 0.0 0.9 0.00 0.00 0.00 93 1023.2
20260506103608 0 88 0.0 0.9 0.00 0.00 0.00 93 1023.2
20260506103108 0 86 2.6 3.5 0.00 0.00 0.00 93 1023.2
20260506102608 0 74 0.9 2.6 0.00 0.00 0.00 93 1023.1
20260506102109 0 88 0.9 1.7 0.00 0.00 0.00 93 1023.2
20260506101610 0 200 2.6 5.2 0.00 0.00 0.00 92 1023.1
20260506101108 0 156 1.7 3.5 0.00 0.00 0.00 95 1023.1
20260506100609 0 191 1.7 5.2 0.00 0.00 0.00 95 1023.0
20260506100108 0 103 0.9 1.7 0.00 0.00 0.00 95 1022.8
20260506095608 0 72 2.6 3.5 0.00 0.00 0.00 95 1022.7
20260506095109 0 152 2.6 3.5 0.00 0.00 0.00 95 1022.6
20260506094609 0 98 2.6 5.2 0.00 0.00 0.00 96 1022.7
20260506094109 0 91 0.9 1.7 0.00 0.00 0.00 96 1022.7
20260506093609 0 91 1.7 2.6 0.00 0.00 0.00 96 1022.5
20260506093108 0 211 4.3 7.8 0.00 0.00 0.00 96 1022.6
20260506092608 0 105 4.3 7.8 0.00 0.00 0.00 96 1022.2
20260506092109 0 104 0.9 0.9 0.00 0.00 0.00 96 1022.2
20260506091609 0 131 2.6 7.8 0.00 0.00 0.00 96 1022.3
20260506091108 0 100 1.7 3.5 0.00 0.00 0.00 96 1022.3
20260506090608 0 71 3.5 5.2 0.00 0.00 0.00 96 1022.3
20260506090109 0 266 2.6 2.6 0.00 0.00 0.00 96 1022.2
20260506085608 0 87 2.6 4.3 0.00 0.00 0.00 96 1022.2
20260506085109 0 62 1.7 4.3 0.00 0.00 0.00 96 1022.2
20260506084608 0 73 2.6 3.5 0.00 0.00 0.00 96 1022.1
20260506084109 0 32 2.6 3.5 0.00 0.00 0.00 96 1022.2
20260506083609 0 161 1.7 2.6 0.00 0.00 0.00 96 1022.0
20260506083108 0 275 3.5 7.8 0.00 0.00 0.00 96 1022.0
20260506082608 0 170 2.6 4.3 0.00 0.00 0.00 96 1021.8
20260506082109 0 79 2.6 4.3 0.00 0.00 0.00 96 1021.7
20260506081609 0 343 3.5 5.2 0.00 0.00 0.00 96 1021.7
20260506081109 0 192 4.3 9.6 0.00 0.00 0.00 96 1021.5
20260506080608 0 129 2.6 4.3 0.00 0.00 0.00 96 1021.7
20260506080109 0 126 3.5 5.2 0.00 0.00 0.00 96 1021.6
20260506073108 0 113 2.6 5.2 0.00 0.00 0.00 96 1010.2
20260506072610 0 113 2.6 5.2 0.00 0.00 0.00 96 1010.2
20260506072108 0 123 4.3 7.0 0.00 0.00 0.00 96 1010.2
20260506071608 0 83 3.5 5.2 0.00 0.00 0.00 96 1010.1
20260506071109 0 65 3.5 4.3 0.00 0.00 0.00 96 1010.1
20260506070610 0 105 1.7 3.5 0.00 0.00 0.00 96 1010.1
20260506070108 0 38 0.9 2.6 0.00 0.00 0.00 96 1010.2
20260506062110 0 82 0.0 0.9 0.00 0.00 0.00 94 1010.1
20260506061608 0 82 0.0 0.9 0.00 0.00 0.00 94 1010.0
20260506061108 0 82 0.0 0.9 0.00 0.00 0.00 94 1010.1
20260506060609 0 83 0.0 0.9 0.00 0.00 0.00 94 1010.0
20260506060109 0 90 0.0 0.0 0.00 0.00 0.00 94 1010.2
20260506051108 0 353 1.7 2.6 0.00 0.00 0.00 94 1010.0
20260506050610 0 38 0.9 0.9 0.00 0.00 0.00 94 1010.0
20260506050111 0 33 1.7 1.7 0.00 0.00 0.00 94 1010.2
20260506045108 0 64 0.0 0.0 0.00 0.00 0.00 94 1010.5
20260506044609 0 41 0.9 1.7 0.00 0.00 0.00 94 1010.5
20260506044109 0 82 0.0 0.9 0.00 0.00 0.00 93 1010.3
20260506043609 0 47 2.6 3.5 0.00 0.00 0.00 94 1010.1
20260506043108 0 34 1.7 2.6 0.00 0.00 0.00 94 1010.3
20260506042609 0 135 0.9 1.7 0.00 0.00 0.00 94 1010.7
20260506042108 0 82 0.0 0.0 0.00 0.00 0.00 94 1010.2
20260506041609 0 53 0.0 0.9 0.00 0.00 0.00 94 1010.2
20260506041109 0 8 2.6 2.6 0.00 0.00 0.00 94 1010.3
20260506040609 0 44 0.9 0.9 0.00 0.00 0.00 94 1010.6
20260506040108 0 64 0.0 0.9 0.00 0.00 0.00 94 1010.7
20260506035609 0 42 1.7 2.6 0.00 0.00 0.00 94 1010.7
20260506035109 0 34 2.6 3.5 0.00 0.00 0.00 95 1010.8
20260506034609 0 359 3.5 3.5 0.00 0.00 0.00 95 1010.7
20260506034108 0 9 4.3 5.2 0.00 0.00 0.00 95 1010.7
20260506033609 0 15 1.7 3.5 0.00 0.00 0.00 95 1010.8
20260506033108 0 18 1.7 2.6 0.00 0.00 0.00 95 1010.7
20260506032609 0 33 0.0 0.9 0.00 0.00 0.00 95 1010.7
20260506032108 0 65 0.0 0.9 0.00 0.00 0.00 95 1011.0
20260506031608 0 93 1.7 1.7 0.00 0.00 0.00 94 1010.7
20260506031109 0 74 0.9 1.7 0.00 0.00 0.00 94 1010.6
20260506030609 0 71 0.0 0.0 0.00 0.00 0.00 95 1010.7
20260506030109 0 60 0.0 0.0 0.00 0.00 0.00 95 1011.2
20260506025609 0 60 0.0 0.0 0.00 0.00 0.00 95 1011.2
20260506025108 0 91 0.9 0.9 0.00 0.00 0.00 95 1011.2
20260506024609 0 69 0.0 0.9 0.00 0.00 0.00 95 1011.0
20260506024108 0 56 0.0 0.0 0.00 0.00 0.00 95 1010.5
20260506023610 0 74 0.0 0.9 0.00 0.00 0.00 94 1010.0
20260506023108 0 72 1.7 3.5 0.00 0.00 0.00 94 1010.5
20260506022609 0 62 0.9 1.7 0.00 0.00 0.00 94 1010.3
20260506022108 0 113 0.0 0.9 0.00 0.00 0.00 94 1010.7
20260506021609 0 60 0.0 0.9 0.00 0.00 0.00 94 1010.7
20260506021109 0 74 0.0 0.0 0.00 0.00 0.00 94 1010.6
20260506020610 0 51 0.0 0.9 0.00 0.00 0.00 93 1011.1
20260506020109 0 51 0.0 0.9 0.00 0.00 0.00 93 1011.0
20260506015609 0 51 0.0 0.9 0.00 0.00 0.00 93 1011.1
20260506015109 0 50 1.7 2.6 0.00 0.00 0.00 92 1011.2
20260506014609 0 50 1.7 2.6 0.00 0.00 0.00 92 1011.2
20260506014109 0 1 0.9 1.7 0.00 0.00 0.00 92 1011.0
20260506013608 0 357 0.9 1.7 0.00 0.00 0.00 92 1011.0
20260506013111 0 357 0.9 1.7 0.00 0.00 0.00 92 1011.3
20260506012609 0 357 0.9 1.7 0.00 0.00 0.00 92 1011.7
20260506012110 0 357 0.9 1.7 0.00 0.00 0.00 92 1011.3
20260506011609 0 32 1.7 2.6 0.00 0.00 0.00 92 1011.7
20260506011109 0 32 1.7 2.6 0.00 0.00 0.00 92 1011.6
20260506010609 0 46 0.9 1.7 0.00 0.00 0.00 92 1011.7
20260506010109 0 59 0.0 0.9 0.00 0.00 0.00 93 1011.6
20260506005609 0 6 0.9 1.7 0.00 0.00 0.00 93 1011.7
20260506005110 0 39 0.9 0.9 0.00 0.00 0.00 93 1011.8
20260506004609 0 64 0.0 0.9 0.00 0.00 0.00 93 1011.8
20260506004108 0 68 0.0 0.0 0.00 0.00 0.00 93 1012.1
20260506003609 0 71 0.0 0.9 0.00 0.00 0.00 93 1012.2
20260506003109 0 19 1.7 1.7 0.00 0.00 0.00 93 1012.2
20260506002608 0 357 1.7 1.7 0.00 0.00 0.00 92 1012.2
20260506002108 0 75 0.0 0.9 0.00 0.00 0.00 92 1012.3
20260506001608 0 330 2.6 3.5 0.00 0.00 0.00 87 1012.2
20260506001109 0 330 2.6 3.5 0.00 0.00 0.00 87 1012.5
20260506000608 0 330 2.6 3.5 0.00 0.00 0.00 87 1012.3
20260506000108 0 330 2.6 3.5 0.00 0.00 0.00 87 1012.2
20260505235608 0 330 2.6 3.5 0.00 0.00 0.00 87 1012.1
20260505235109 0 4 1.7 2.6 0.00 0.00 0.00 86 1012.1
20260505234609 0 58 0.0 0.9 0.00 0.00 0.00 86 1012.3
20260505234108 0 62 0.0 0.0 0.00 0.00 0.00 86 1012.6
20260505233609 0 57 0.0 0.9 0.00 0.00 0.00 86 1012.6
20260505233109 0 80 0.0 0.0 0.00 0.00 0.00 86 1012.7
20260505232609 0 4 1.7 1.7 0.00 0.00 0.00 86 1012.8
20260505232108 0 27 0.0 0.9 0.00 0.00 0.00 86 1012.7
20260505231608 0 28 1.7 2.6 0.00 0.00 0.00 87 1013.0
20260505231109 0 52 0.9 2.6 0.00 0.00 0.00 87 1012.8
20260505230608 0 22 2.6 2.6 0.00 0.00 0.00 88 1013.0
20260505230109 0 31 1.7 2.6 0.00 0.00 0.00 88 1013.5
20260505225609 0 2 2.6 3.5 0.00 0.00 0.00 89 1013.1
20260505225109 0 33 2.6 2.6 0.00 0.00 0.00 88 1013.2
20260505224608 0 35 1.7 2.6 0.00 0.00 0.00 88 1013.3
20260505224109 0 58 0.9 1.7 0.00 0.00 0.00 87 1013.3
20260505223609 0 49 1.7 1.7 0.00 0.00 0.00 88 1013.6
20260505223110 0 63 0.0 0.9 0.00 0.00 0.00 88 1013.7
20260505222609 0 37 1.7 1.7 0.00 0.00 0.00 89 1013.8
20260505222109 0 22 0.0 1.7 0.00 0.00 0.00 90 1013.6
20260505221608 0 13 1.7 2.6 0.00 0.00 0.00 90 1013.7
20260505221108 0 59 0.9 1.7 0.00 0.00 0.00 90 1013.7
20260505220608 0 24 1.7 2.6 0.00 0.00 0.00 91 1013.6
20260505220109 0 14 1.7 2.6 0.00 0.00 0.00 91 1013.5
20260505215609 0 32 1.7 1.7 0.00 0.00 0.04 91 1013.6
20260505215108 0 46 0.9 1.7 0.00 0.00 0.04 91 1013.7
20260505214608 0 38 0.9 1.7 0.00 0.00 0.04 91 1013.8
20260505214108 0 349 1.7 1.7 0.00 0.00 0.04 91 1013.8
20260505213608 0 61 0.9 1.7 0.00 0.00 0.04 91 1013.8
20260505213109 0 50 0.9 2.6 0.00 0.00 0.04 91 1014.0
20260505212608 0 42 1.7 2.6 0.00 0.00 0.04 91 1013.8
20260505212108 0 41 1.7 3.5 0.00 0.00 0.04 91 1013.8
20260505211609 0 64 1.7 1.7 0.00 0.00 0.04 91 1013.7
20260505211109 0 66 0.9 1.7 0.00 0.00 0.04 91 1013.8
20260505210609 0 40 0.9 1.7 0.00 0.00 0.04 91 1013.8
20260505210108 0 40 0.9 1.7 0.00 0.00 0.04 91 1014.1
20260505205608 0 52 0.0 0.9 0.00 0.00 0.04 90 1014.0
20260505205110 0 40 0.9 0.9 0.00 0.00 0.04 90 1014.2
20260505204609 0 37 0.9 0.9 0.00 0.00 0.04 90 1014.2
20260505204108 0 42 0.0 0.9 0.00 0.00 0.04 90 1014.3
20260505203609 0 34 0.0 0.9 0.00 0.00 0.04 91 1014.3
20260505203108 0 25 1.7 2.6 0.00 0.00 0.04 90 1014.5
20260505202608 0 51 0.9 0.9 0.00 0.00 0.04 90 1014.3
20260505202109 0 5 0.9 1.7 0.00 0.00 0.04 90 1014.5
20260505201609 0 60 0.0 0.9 0.00 0.00 0.04 90 1014.6
20260505201109 0 66 0.0 0.0 0.00 0.00 0.04 89 1014.6
20260505200609 0 73 0.0 0.0 0.00 0.00 0.04 89 1014.6
20260505200108 0 70 0.0 0.9 0.00 0.00 0.04 89 1014.5
20260505195609 0 69 0.0 0.0 0.00 0.00 0.04 90 1014.2
20260505195109 0 69 0.0 0.0 0.00 0.00 0.04 90 1014.2
20260505194609 0 72 0.0 0.0 0.00 0.00 0.04 90 1014.3
20260505194109 0 92 0.9 1.7 0.00 0.00 0.04 91 1014.2
20260505193608 0 80 0.0 0.0 0.00 0.00 0.04 91 1014.2
20260505193108 0 77 0.0 0.0 0.00 0.00 0.04 91 1014.3
20260505192609 0 76 0.0 0.9 0.00 0.00 0.04 90 1014.2
20260505192109 0 90 0.0 0.9 0.00 0.00 0.04 91 1014.2
20260505191609 0 76 0.0 0.0 0.00 0.00 0.04 91 1014.2
20260505191108 0 85 0.0 0.0 0.00 0.00 0.04 91 1014.2
20260505190608 0 76 0.0 0.0 0.00 0.00 0.04 91 1014.1
20260505190109 0 80 0.0 0.0 0.00 0.00 0.04 91 1014.1
20260505185608 0 81 0.0 0.0 0.00 0.00 0.04 91 1014.0